Saint Bonnet de Bellac- Haute Vienne - France
Donnes mto: dimanche, 08/01/2012
Date Horaire Temp. E. Hum. E. P.atmo. Pluie Vent Direction Direction Ensoleilleme Solaire P. de rose Temp au vent Rafales
08/01/2012 00:00 8,6 C 95 % 1027,5 hPa 0,0 mm 1,8 km/h (1 Bft) O-SO 247 0 min 0 W/m 7,8 C 8,6 C 3,6 km/h (1 Bft)
08/01/2012 00:10 8,6 C 95 % 1027,7 hPa 0,0 mm 0,0 km/h (0 Bft) O-SO 247 0 min 0 W/m 7,8 C 8,6 C 0,0 km/h (0 Bft)
08/01/2012 00:20 8,6 C 95 % 1027,6 hPa 0,0 mm 2,2 km/h (1 Bft) O-SO 247 0 min 0 W/m 7,8 C 8,6 C 7,2 km/h (2 Bft)
08/01/2012 00:30 8,6 C 95 % 1027,6 hPa 0,0 mm 2,2 km/h (1 Bft) SO 225 0 min 0 W/m 7,8 C 8,6 C 7,6 km/h (2 Bft)
08/01/2012 00:40 8,6 C 95 % 1027,6 hPa 0,0 mm 0,7 km/h (0 Bft) O 270 0 min 0 W/m 7,8 C 8,6 C 3,2 km/h (1 Bft)
08/01/2012 00:50 8,6 C 95 % 1027,5 hPa 0,0 mm 2,9 km/h (1 Bft) O 270 0 min 0 W/m 7,8 C 8,6 C 2,9 km/h (1 Bft)
08/01/2012 01:00 8,6 C 95 % 1027,4 hPa 0,0 mm 0,0 km/h (0 Bft) O-SO 247 0 min 0 W/m 7,8 C 8,6 C 0,0 km/h (0 Bft)
08/01/2012 01:10 8,6 C 95 % 1027,2 hPa 0,0 mm 0,0 km/h (0 Bft) SO 225 0 min 0 W/m 7,8 C 8,6 C 3,6 km/h (1 Bft)
08/01/2012 01:20 8,6 C 95 % 1027,2 hPa 0,0 mm 1,4 km/h (1 Bft) O-SO 247 0 min 0 W/m 7,8 C 8,6 C 4,0 km/h (1 Bft)
08/01/2012 01:30 8,6 C 95 % 1027,1 hPa 0,0 mm 0,0 km/h (0 Bft) O-SO 247 0 min 0 W/m 7,8 C 8,6 C 2,9 km/h (1 Bft)
08/01/2012 01:40 8,6 C 95 % 1027,0 hPa 0,0 mm 2,5 km/h (1 Bft) O-SO 247 0 min 0 W/m 7,8 C 8,6 C 4,0 km/h (1 Bft)
08/01/2012 01:50 8,6 C 95 % 1027,0 hPa 0,0 mm 1,1 km/h (1 Bft) O-SO 247 0 min 0 W/m 7,8 C 8,6 C 6,1 km/h (2 Bft)
08/01/2012 02:02 8,6 C 95 % 1027,2 hPa 0,0 mm 0,7 km/h (0 Bft) O-SO 247 0 min 0 W/m 7,8 C 8,6 C 3,6 km/h (1 Bft)
08/01/2012 02:10 8,6 C 95 % 1027,2 hPa 0,0 mm 1,8 km/h (1 Bft) O-SO 247 0 min 0 W/m 7,8 C 8,6 C 4,0 km/h (1 Bft)
08/01/2012 02:20 8,6 C 95 % 1027,1 hPa 0,0 mm 2,9 km/h (1 Bft) SO 225 0 min 0 W/m 7,8 C 8,6 C 4,0 km/h (1 Bft)
08/01/2012 02:30 8,6 C 95 % 1027,2 hPa 0,0 mm 0,0 km/h (0 Bft) O-SO 247 0 min 0 W/m 7,8 C 8,6 C 0,0 km/h (0 Bft)
08/01/2012 02:40 8,6 C 95 % 1027,2 hPa 0,0 mm 1,4 km/h (1 Bft) O-NO 292 0 min 0 W/m 7,8 C 8,6 C 1,4 km/h (1 Bft)
08/01/2012 02:50 8,6 C 95 % 1027,3 hPa 0,0 mm 0,0 km/h (0 Bft) O-SO 247 0 min 0 W/m 7,8 C 8,6 C 0,0 km/h (0 Bft)
08/01/2012 03:00 8,6 C 95 % 1027,3 hPa 0,0 mm 0,0 km/h (0 Bft) O 270 0 min 0 W/m 7,8 C 8,6 C 0,0 km/h (0 Bft)
08/01/2012 03:10 8,5 C 95 % 1027,3 hPa 0,0 mm 4,7 km/h (1 Bft) O 270 0 min 0 W/m 7,7 C 8,2 C 7,9 km/h (2 Bft)
08/01/2012 03:20 8,6 C 95 % 1027,2 hPa 0,0 mm 1,8 km/h (1 Bft) O-SO 247 0 min 0 W/m 7,8 C 8,6 C 3,6 km/h (1 Bft)
08/01/2012 03:30 8,6 C 95 % 1027,0 hPa 0,0 mm 0,0 km/h (0 Bft) O-SO 247 0 min 0 W/m 7,8 C 8,6 C 0,0 km/h (0 Bft)
08/01/2012 03:40 8,6 C 95 % 1027,1 hPa 0,0 mm 1,8 km/h (1 Bft) O-SO 247 0 min 0 W/m 7,8 C 8,6 C 4,3 km/h (1 Bft)
08/01/2012 03:50 8,6 C 95 % 1026,9 hPa 0,0 mm 1,4 km/h (1 Bft) O-SO 247 0 min 0 W/m 7,8 C 8,6 C 6,5 km/h (2 Bft)
08/01/2012 04:00 8,6 C 95 % 1027,0 hPa 0,0 mm 0,0 km/h (0 Bft) O-SO 247 0 min 0 W/m 7,8 C 8,6 C 0,0 km/h (0 Bft)
08/01/2012 04:10 8,6 C 95 % 1026,9 hPa 0,0 mm 0,0 km/h (0 Bft) O-NO 292 0 min 0 W/m 7,8 C 8,6 C 0,0 km/h (0 Bft)
08/01/2012 04:20 8,6 C 95 % 1026,8 hPa 0,0 mm 4,3 km/h (1 Bft) O 270 0 min 0 W/m 7,8 C 8,6 C 10,4 km/h (2 Bft)
08/01/2012 04:30 8,6 C 95 % 1026,8 hPa 0,0 mm 0,7 km/h (0 Bft) O 270 0 min 0 W/m 7,8 C 8,6 C 3,2 km/h (1 Bft)
08/01/2012 04:40 8,6 C 95 % 1026,8 hPa 0,0 mm 2,2 km/h (1 Bft) O 270 0 min 0 W/m 7,8 C 8,6 C 3,2 km/h (1 Bft)
08/01/2012 04:50 8,6 C 95 % 1026,7 hPa 0,0 mm 2,2 km/h (1 Bft) O 270 0 min 0 W/m 7,8 C 8,6 C 6,8 km/h (2 Bft)
08/01/2012 05:00 8,6 C 95 % 1026,7 hPa 0,0 mm 5,8 km/h (2 Bft) O 270 0 min 0 W/m 7,8 C 7,9 C 10,1 km/h (2 Bft)
08/01/2012 05:10 8,6 C 95 % 1026,8 hPa 0,0 mm 1,1 km/h (1 Bft) NO 315 0 min 0 W/m 7,8 C 8,6 C 1,4 km/h (1 Bft)
08/01/2012 05:20 8,5 C 95 % 1026,8 hPa 0,0 mm 2,9 km/h (1 Bft) NO 315 0 min 0 W/m 7,7 C 8,5 C 6,1 km/h (2 Bft)
08/01/2012 05:30 8,4 C 95 % 1026,7 hPa 0,0 mm 4,0 km/h (1 Bft) N-NO 337 0 min 0 W/m 7,6 C 8,4 C 4,0 km/h (1 Bft)
08/01/2012 05:40 8,3 C 94 % 1026,6 hPa 0,0 mm 1,1 km/h (1 Bft) NO 315 0 min 0 W/m 7,4 C 8,3 C 4,3 km/h (1 Bft)
08/01/2012 05:50 8,2 C 95 % 1026,6 hPa 0,0 mm 4,0 km/h (1 Bft) N-NO 337 0 min 0 W/m 7,4 C 8,2 C 7,6 km/h (2 Bft)
08/01/2012 06:00 8,1 C 94 % 1026,5 hPa 0,0 mm 0,0 km/h (0 Bft) N-NO 337 0 min 0 W/m 7,2 C 8,1 C 1,4 km/h (1 Bft)
08/01/2012 06:10 7,9 C 94 % 1026,5 hPa 0,0 mm 0,0 km/h (0 Bft) N-NO 337 0 min 0 W/m 7,0 C 7,9 C 0,0 km/h (0 Bft)
08/01/2012 06:20 7,9 C 94 % 1026,6 hPa 0,0 mm 0,0 km/h (0 Bft) N-NO 337 0 min 0 W/m 7,0 C 7,9 C 0,0 km/h (0 Bft)
08/01/2012 06:30 7,8 C 94 % 1026,5 hPa 0,0 mm 0,7 km/h (0 Bft) N-NO 337 0 min 0 W/m 6,9 C 7,8 C 3,6 km/h (1 Bft)
08/01/2012 06:40 7,8 C 94 % 1026,5 hPa 0,0 mm 2,2 km/h (1 Bft) NO 315 0 min 0 W/m 6,9 C 7,8 C 2,2 km/h (1 Bft)
08/01/2012 06:50 7,7 C 94 % 1026,4 hPa 0,0 mm 0,0 km/h (0 Bft) NO 315 0 min 0 W/m 6,8 C 7,7 C 0,0 km/h (0 Bft)
08/01/2012 07:00 7,6 C 94 % 1026,5 hPa 0,0 mm 0,0 km/h (0 Bft) NO 315 0 min 0 W/m 6,7 C 7,6 C 0,0 km/h (0 Bft)
08/01/2012 07:10 7,5 C 94 % 1026,6 hPa 0,0 mm 1,4 km/h (1 Bft) N-NO 337 0 min 0 W/m 6,6 C 7,5 C 4,0 km/h (1 Bft)
08/01/2012 07:20 7,5 C 94 % 1026,5 hPa 0,0 mm 0,0 km/h (0 Bft) NO 315 0 min 0 W/m 6,6 C 7,5 C 0,0 km/h (0 Bft)
08/01/2012 07:30 7,4 C 93 % 1026,8 hPa 0,0 mm 0,0 km/h (0 Bft) O-NO 292 0 min 0 W/m 6,3 C 7,4 C 0,0 km/h (0 Bft)
08/01/2012 07:40 7,3 C 93 % 1026,8 hPa 0,0 mm 5,0 km/h (1 Bft) N-NO 337 0 min 0 W/m 6,2 C 6,7 C 8,3 km/h (2 Bft)
08/01/2012 07:50 7,3 C 93 % 1026,9 hPa 0,0 mm 3,2 km/h (1 Bft) NO 315 0 min 0 W/m 6,2 C 7,3 C 8,3 km/h (2 Bft)
08/01/2012 08:00 7,2 C 93 % 1027,0 hPa 0,0 mm 0,4 km/h (0 Bft) NO 315 0 min 0 W/m 6,1 C 7,2 C 3,2 km/h (1 Bft)
08/01/2012 08:10 7,1 C 92 % 1027,0 hPa 0,0 mm 0,7 km/h (0 Bft) O-NO 292 0 min 0 W/m 5,9 C 7,1 C 6,8 km/h (2 Bft)
08/01/2012 08:20 7,0 C 92 % 1027,1 hPa 0,0 mm 0,0 km/h (0 Bft) O-NO 292 0 min 0 W/m 5,8 C 7,0 C 0,0 km/h (0 Bft)
08/01/2012 08:30 6,9 C 92 % 1027,1 hPa 0,0 mm 0,7 km/h (0 Bft) NO 315 0 min 0 W/m 5,7 C 6,9 C 0,7 km/h (0 Bft)
08/01/2012 08:40 6,8 C 92 % 1027,3 hPa 0,0 mm 0,7 km/h (0 Bft) O-NO 292 0 min 0 W/m 5,6 C 6,8 C 0,7 km/h (0 Bft)
08/01/2012 08:50 6,8 C 92 % 1027,3 hPa 0,0 mm 0,0 km/h (0 Bft) O 270 2 min 0 W/m 5,6 C 6,8 C 0,0 km/h (0 Bft)
08/01/2012 09:00 6,8 C 92 % 1027,5 hPa 0,0 mm 0,0 km/h (0 Bft) O-NO 292 2 min 0 W/m 5,6 C 6,8 C 4,0 km/h (1 Bft)
08/01/2012 09:10 6,8 C 92 % 1027,4 hPa 0,0 mm 5,4 km/h (2 Bft) O-NO 292 2 min 0 W/m 5,6 C 6,0 C 9,4 km/h (2 Bft)
08/01/2012 09:20 6,8 C 92 % 1027,5 hPa 0,0 mm 0,0 km/h (0 Bft) N-NO 337 2 min 0 W/m 5,6 C 6,8 C 0,0 km/h (0 Bft)
08/01/2012 09:30 6,8 C 92 % 1027,6 hPa 0,0 mm 0,0 km/h (0 Bft) NO 315 2 min 0 W/m 5,6 C 6,8 C 0,0 km/h (0 Bft)
08/01/2012 09:40 6,8 C 91 % 1027,6 hPa 0,0 mm 1,8 km/h (1 Bft) NO 315 2 min 0 W/m 5,4 C 6,8 C 4,3 km/h (1 Bft)
08/01/2012 09:50 6,8 C 91 % 1027,7 hPa 0,0 mm 0,0 km/h (0 Bft) NO 315 2 min 0 W/m 5,4 C 6,8 C 0,0 km/h (0 Bft)
08/01/2012 10:00 6,8 C 91 % 1027,9 hPa 0,0 mm 2,2 km/h (1 Bft) O-NO 292 2 min 0 W/m 5,4 C 6,8 C 6,1 km/h (2 Bft)
08/01/2012 10:10 6,8 C 91 % 1028,1 hPa 0,0 mm 2,2 km/h (1 Bft) NO 315 2 min 0 W/m 5,4 C 6,8 C 6,5 km/h (2 Bft)
08/01/2012 10:20 6,8 C 91 % 1028,1 hPa 0,0 mm 0,4 km/h (0 Bft) O 270 2 min 0 W/m 5,4 C 6,8 C 4,3 km/h (1 Bft)
08/01/2012 10:30 6,9 C 90 % 1028,0 hPa 0,0 mm 0,0 km/h (0 Bft) O-NO 292 2 min 0 W/m 5,4 C 6,9 C 0,0 km/h (0 Bft)
08/01/2012 10:40 6,9 C 90 % 1028,0 hPa 0,0 mm 0,0 km/h (0 Bft) O-NO 292 2 min 0 W/m 5,4 C 6,9 C 0,0 km/h (0 Bft)
08/01/2012 10:50 7,1 C 90 % 1028,2 hPa 0,0 mm 0,0 km/h (0 Bft) NO 315 2 min 0 W/m 5,6 C 7,1 C 0,0 km/h (0 Bft)
08/01/2012 11:00 7,1 C 90 % 1028,3 hPa 0,0 mm 1,8 km/h (1 Bft) NO 315 2 min 0 W/m 5,6 C 7,1 C 4,3 km/h (1 Bft)
08/01/2012 11:10 7,2 C 90 % 1028,5 hPa 0,0 mm 0,0 km/h (0 Bft) O-NO 292 2 min 0 W/m 5,7 C 7,2 C 2,9 km/h (1 Bft)
08/01/2012 11:20 7,3 C 90 % 1028,4 hPa 0,0 mm 0,0 km/h (0 Bft) O-NO 292 2 min 0 W/m 5,8 C 7,3 C 0,0 km/h (0 Bft)
08/01/2012 11:30 7,3 C 89 % 1028,4 hPa 0,0 mm 0,0 km/h (0 Bft) O-SO 247 2 min 0 W/m 5,6 C 7,3 C 0,0 km/h (0 Bft)
08/01/2012 11:40 7,4 C 89 % 1028,4 hPa 0,0 mm 0,7 km/h (0 Bft) N-NO 337 2 min 0 W/m 5,7 C 7,4 C 3,2 km/h (1 Bft)
08/01/2012 11:50 7,4 C 89 % 1028,4 hPa 0,0 mm 4,3 km/h (1 Bft) NO 315 2 min 0 W/m 5,7 C 7,4 C 9,7 km/h (2 Bft)
08/01/2012 12:00 7,4 C 89 % 1028,3 hPa 0,0 mm 0,0 km/h (0 Bft) N-NO 337 2 min 0 W/m 5,7 C 7,4 C 0,0 km/h (0 Bft)
08/01/2012 12:10 7,4 C 89 % 1028,2 hPa 0,0 mm 2,2 km/h (1 Bft) O-NO 292 2 min 0 W/m 5,7 C 7,4 C 4,3 km/h (1 Bft)
08/01/2012 12:20 7,4 C 89 % 1028,2 hPa 0,0 mm 0,4 km/h (0 Bft) NO 315 2 min 0 W/m 5,7 C 7,4 C 3,2 km/h (1 Bft)
08/01/2012 12:30 7,5 C 88 % 1028,1 hPa 0,0 mm 1,1 km/h (1 Bft) O-NO 292 2 min 0 W/m 5,6 C 7,5 C 4,0 km/h (1 Bft)
08/01/2012 12:40 7,5 C 88 % 1028,0 hPa 0,0 mm 0,0 km/h (0 Bft) O 270 2 min 0 W/m 5,6 C 7,5 C 0,0 km/h (0 Bft)
08/01/2012 12:50 7,6 C 88 % 1027,9 hPa 0,0 mm 0,0 km/h (0 Bft) NO 315 2 min 0 W/m 5,7 C 7,6 C 0,0 km/h (0 Bft)
08/01/2012 13:00 7,7 C 88 % 1027,8 hPa 0,0 mm 0,0 km/h (0 Bft) O 270 2 min 0 W/m 5,8 C 7,7 C 0,0 km/h (0 Bft)
08/01/2012 13:10 7,8 C 87 % 1027,8 hPa 0,0 mm 1,8 km/h (1 Bft) NO 315 2 min 0 W/m 5,8 C 7,8 C 4,0 km/h (1 Bft)
08/01/2012 13:20 7,8 C 87 % 1027,7 hPa 0,0 mm 3,2 km/h (1 Bft) N-NO 337 2 min 0 W/m 5,8 C 7,8 C 6,5 km/h (2 Bft)
08/01/2012 13:30 7,8 C 87 % 1027,7 hPa 0,0 mm 4,0 km/h (1 Bft) NO 315 2 min 0 W/m 5,8 C 7,8 C 4,3 km/h (1 Bft)
08/01/2012 13:40 7,8 C 87 % 1027,6 hPa 0,0 mm 1,4 km/h (1 Bft) O 270 2 min 0 W/m 5,8 C 7,8 C 1,4 km/h (1 Bft)
08/01/2012 13:50 7,8 C 87 % 1027,5 hPa 0,0 mm 4,3 km/h (1 Bft) NO 315 2 min 0 W/m 5,8 C 7,8 C 9,0 km/h (2 Bft)
08/01/2012 14:00 7,8 C 87 % 1027,5 hPa 0,0 mm 6,1 km/h (2 Bft) N-NO 337 2 min 0 W/m 5,8 C 6,9 C 7,9 km/h (2 Bft)
08/01/2012 14:10 7,8 C 86 % 1027,3 hPa 0,0 mm 5,4 km/h (2 Bft) NO 315 2 min 0 W/m 5,6 C 7,1 C 7,6 km/h (2 Bft)
08/01/2012 14:20 7,8 C 86 % 1027,4 hPa 0,0 mm 5,4 km/h (2 Bft) N 360 2 min 0 W/m 5,6 C 7,1 C 5,4 km/h (2 Bft)
08/01/2012 14:30 7,8 C 87 % 1027,3 hPa 0,0 mm 1,1 km/h (1 Bft) N-NO 337 2 min 0 W/m 5,8 C 7,8 C 6,5 km/h (2 Bft)
08/01/2012 14:40 7,9 C 87 % 1027,2 hPa 0,0 mm 2,9 km/h (1 Bft) NO 315 2 min 0 W/m 5,9 C 7,9 C 4,0 km/h (1 Bft)
08/01/2012 14:50 7,9 C 86 % 1027,0 hPa 0,0 mm 2,9 km/h (1 Bft) NO 315 2 min 0 W/m 5,7 C 7,9 C 6,5 km/h (2 Bft)
08/01/2012 15:00 8,0 C 86 % 1027,1 hPa 0,0 mm 2,2 km/h (1 Bft) O-NO 292 2 min 0 W/m 5,8 C 8,0 C 7,2 km/h (2 Bft)
08/01/2012 15:10 8,1 C 86 % 1027,3 hPa 0,0 mm 9,0 km/h (2 Bft) N-NO 337 2 min 0 W/m 5,9 C 6,6 C 13,3 km/h (3 Bft)
08/01/2012 15:20 8,1 C 86 % 1027,4 hPa 0,0 mm 5,4 km/h (2 Bft) NO 315 2 min 0 W/m 5,9 C 7,5 C 6,5 km/h (2 Bft)
08/01/2012 15:30 8,1 C 85 % 1027,4 hPa 0,0 mm 3,2 km/h (1 Bft) NO 315 2 min 0 W/m 5,7 C 8,1 C 7,2 km/h (2 Bft)
08/01/2012 15:40 8,1 C 85 % 1027,5 hPa 0,0 mm 3,2 km/h (1 Bft) NO 315 2 min 0 W/m 5,7 C 8,1 C 7,2 km/h (2 Bft)
08/01/2012 15:50 8,0 C 85 % 1027,6 hPa 0,0 mm 2,2 km/h (1 Bft) NO 315 2 min 0 W/m 5,6 C 8,0 C 4,0 km/h (1 Bft)
08/01/2012 16:00 7,9 C 85 % 1027,5 hPa 0,0 mm 2,5 km/h (1 Bft) NO 315 2 min 0 W/m 5,5 C 7,9 C 7,2 km/h (2 Bft)
08/01/2012 16:10 7,9 C 86 % 1027,4 hPa 0,0 mm 0,4 km/h (0 Bft) N 360 2 min 0 W/m 5,7 C 7,9 C 2,9 km/h (1 Bft)
08/01/2012 16:20 7,9 C 86 % 1027,6 hPa 0,0 mm 2,2 km/h (1 Bft) N-NO 337 2 min 0 W/m 5,7 C 7,9 C 4,0 km/h (1 Bft)
08/01/2012 16:30 7,8 C 86 % 1027,5 hPa 0,0 mm 1,1 km/h (1 Bft) N-NO 337 2 min 0 W/m 5,6 C 7,8 C 1,1 km/h (1 Bft)
08/01/2012 16:40 7,8 C 87 % 1027,6 hPa 0,0 mm 2,2 km/h (1 Bft) NO 315 2 min 0 W/m 5,8 C 7,8 C 3,6 km/h (1 Bft)
08/01/2012 16:50 7,8 C 87 % 1027,6 hPa 0,0 mm 3,2 km/h (1 Bft) NO 315 2 min 0 W/m 5,8 C 7,8 C 4,3 km/h (1 Bft)
08/01/2012 17:00 7,6 C 87 % 1027,6 hPa 0,0 mm 1,4 km/h (1 Bft) NO 315 2 min 0 W/m 5,6 C 7,6 C 4,3 km/h (1 Bft)
08/01/2012 17:10 7,6 C 87 % 1027,7 hPa 0,0 mm 1,4 km/h (1 Bft) NO 315 2 min 0 W/m 5,6 C 7,6 C 4,0 km/h (1 Bft)
08/01/2012 17:20 7,5 C 87 % 1027,7 hPa 0,0 mm 0,4 km/h (0 Bft) NO 315 0 min 0 W/m 5,5 C 7,5 C 3,6 km/h (1 Bft)
08/01/2012 17:30 7,4 C 88 % 1027,7 hPa 0,0 mm 1,8 km/h (1 Bft) NO 315 0 min 0 W/m 5,5 C 7,4 C 4,0 km/h (1 Bft)
08/01/2012 17:40 7,3 C 88 % 1027,9 hPa 0,0 mm 0,0 km/h (0 Bft) N-NO 337 0 min 0 W/m 5,4 C 7,3 C 0,0 km/h (0 Bft)
08/01/2012 17:50 7,2 C 88 % 1027,7 hPa 0,0 mm 0,0 km/h (0 Bft) N-NO 337 0 min 0 W/m 5,3 C 7,2 C 0,0 km/h (0 Bft)
08/01/2012 18:00 7,2 C 88 % 1027,8 hPa 0,0 mm 0,0 km/h (0 Bft) N-NO 337 0 min 0 W/m 5,3 C 7,2 C 0,0 km/h (0 Bft)
08/01/2012 18:10 7,1 C 88 % 1027,9 hPa 0,0 mm 0,0 km/h (0 Bft) N-NO 337 0 min 0 W/m 5,2 C 7,1 C 0,0 km/h (0 Bft)
08/01/2012 18:20 6,9 C 88 % 1028,0 hPa 0,0 mm 0,0 km/h (0 Bft) N-NO 337 0 min 0 W/m 5,1 C 6,9 C 0,0 km/h (0 Bft)
08/01/2012 18:30 6,9 C 89 % 1028,1 hPa 0,0 mm 0,0 km/h (0 Bft) N-NO 337 0 min 0 W/m 5,2 C 6,9 C 0,0 km/h (0 Bft)
08/01/2012 18:40 6,8 C 89 % 1028,1 hPa 0,0 mm 0,0 km/h (0 Bft) N-NO 337 0 min 0 W/m 5,1 C 6,8 C 0,0 km/h (0 Bft)
08/01/2012 18:50 6,8 C 89 % 1028,1 hPa 0,0 mm 0,0 km/h (0 Bft) N-NO 337 0 min 0 W/m 5,1 C 6,8 C 0,0 km/h (0 Bft)
08/01/2012 19:00 6,8 C 89 % 1028,2 hPa 0,0 mm 0,0 km/h (0 Bft) N-NO 337 0 min 0 W/m 5,1 C 6,8 C 0,0 km/h (0 Bft)
08/01/2012 19:10 6,8 C 89 % 1028,2 hPa 0,0 mm 0,0 km/h (0 Bft) N-NO 337 0 min 0 W/m 5,1 C 6,8 C 0,0 km/h (0 Bft)
08/01/2012 19:20 6,7 C 89 % 1028,3 hPa 0,0 mm 0,0 km/h (0 Bft) N-NO 337 0 min 0 W/m 5,0 C 6,7 C 0,0 km/h (0 Bft)
08/01/2012 19:30 6,7 C 89 % 1028,4 hPa 0,0 mm 0,0 km/h (0 Bft) N-NO 337 0 min 0 W/m 5,0 C 6,7 C 0,0 km/h (0 Bft)
08/01/2012 19:40 6,6 C 89 % 1028,5 hPa 0,0 mm 0,0 km/h (0 Bft) N-NO 337 0 min 0 W/m 4,9 C 6,6 C 0,0 km/h (0 Bft)
08/01/2012 19:50 6,6 C 90 % 1028,6 hPa 0,0 mm 0,0 km/h (0 Bft) N-NO 337 0 min 0 W/m 5,1 C 6,6 C 0,0 km/h (0 Bft)
08/01/2012 20:00 6,6 C 90 % 1028,5 hPa 0,0 mm 0,0 km/h (0 Bft) N-NO 337 0 min 0 W/m 5,1 C 6,6 C 0,0 km/h (0 Bft)
08/01/2012 20:10 6,6 C 90 % 1028,7 hPa 0,0 mm 0,0 km/h (0 Bft) N-NO 337 0 min 0 W/m 5,1 C 6,6 C 0,0 km/h (0 Bft)
08/01/2012 20:20 6,6 C 90 % 1028,7 hPa 0,0 mm 0,0 km/h (0 Bft) N-NO 337 0 min 0 W/m 5,1 C 6,6 C 0,0 km/h (0 Bft)
08/01/2012 20:30 6,5 C 90 % 1028,7 hPa 0,0 mm 0,0 km/h (0 Bft) N-NO 337 0 min 0 W/m 5,0 C 6,5 C 0,0 km/h (0 Bft)
08/01/2012 20:40 6,5 C 90 % 1028,8 hPa 0,0 mm 0,0 km/h (0 Bft) N-NO 337 0 min 0 W/m 5,0 C 6,5 C 0,0 km/h (0 Bft)
08/01/2012 20:50 6,5 C 90 % 1029,0 hPa 0,0 mm 0,0 km/h (0 Bft) N-NO 337 0 min 0 W/m 5,0 C 6,5 C 0,0 km/h (0 Bft)
08/01/2012 21:00 6,5 C 91 % 1029,1 hPa 0,0 mm 0,0 km/h (0 Bft) N-NO 337 0 min 0 W/m 5,1 C 6,5 C 0,0 km/h (0 Bft)
08/01/2012 21:10 6,5 C 91 % 1029,2 hPa 0,0 mm 0,0 km/h (0 Bft) N-NE 22 0 min 0 W/m 5,1 C 6,5 C 0,0 km/h (0 Bft)
08/01/2012 21:20 6,5 C 91 % 1029,2 hPa 0,0 mm 0,4 km/h (0 Bft) N-NO 337 0 min 0 W/m 5,1 C 6,5 C 3,6 km/h (1 Bft)
08/01/2012 21:30 6,5 C 91 % 1029,3 hPa 0,0 mm 2,5 km/h (1 Bft) N 360 0 min 0 W/m 5,1 C 6,5 C 4,0 km/h (1 Bft)
08/01/2012 21:40 6,5 C 91 % 1029,2 hPa 0,0 mm 0,0 km/h (0 Bft) N-NE 22 0 min 0 W/m 5,1 C 6,5 C 0,0 km/h (0 Bft)
08/01/2012 21:50 6,5 C 91 % 1029,2 hPa 0,0 mm 0,0 km/h (0 Bft) N-NE 22 0 min 0 W/m 5,1 C 6,5 C 0,0 km/h (0 Bft)
08/01/2012 22:00 6,5 C 91 % 1029,2 hPa 0,0 mm 2,2 km/h (1 Bft) N-NE 22 0 min 0 W/m 5,1 C 6,5 C 4,3 km/h (1 Bft)
08/01/2012 22:10 6,5 C 91 % 1029,2 hPa 0,0 mm 0,0 km/h (0 Bft) N-NO 337 0 min 0 W/m 5,1 C 6,5 C 0,0 km/h (0 Bft)
08/01/2012 22:20 6,5 C 91 % 1029,2 hPa 0,0 mm 0,0 km/h (0 Bft) N-NO 337 0 min 0 W/m 5,1 C 6,5 C 3,2 km/h (1 Bft)
08/01/2012 22:30 6,4 C 91 % 1029,3 hPa 0,0 mm 0,0 km/h (0 Bft) N-NO 337 0 min 0 W/m 5,0 C 6,4 C 0,0 km/h (0 Bft)
08/01/2012 22:40 6,5 C 90 % 1029,2 hPa 0,0 mm 0,0 km/h (0 Bft) N-NE 22 0 min 0 W/m 5,0 C 6,5 C 0,0 km/h (0 Bft)
08/01/2012 22:50 6,5 C 90 % 1029,3 hPa 0,0 mm 0,4 km/h (0 Bft) N-NE 22 0 min 0 W/m 5,0 C 6,5 C 3,2 km/h (1 Bft)
08/01/2012 23:00 6,5 C 90 % 1029,4 hPa 0,0 mm 1,1 km/h (1 Bft) N-NE 22 0 min 0 W/m 5,0 C 6,5 C 3,6 km/h (1 Bft)
08/01/2012 23:10 6,5 C 90 % 1029,4 hPa 0,0 mm 0,0 km/h (0 Bft) N-NE 22 0 min 0 W/m 5,0 C 6,5 C 0,0 km/h (0 Bft)
08/01/2012 23:20 6,5 C 90 % 1029,4 hPa 0,0 mm 0,4 km/h (0 Bft) N-NE 22 0 min 0 W/m 5,0 C 6,5 C 3,2 km/h (1 Bft)
08/01/2012 23:30 6,4 C 90 % 1029,6 hPa 0,0 mm 0,0 km/h (0 Bft) N-NE 22 0 min 0 W/m 4,9 C 6,4 C 0,0 km/h (0 Bft)
08/01/2012 23:40 6,4 C 90 % 1029,5 hPa 0,0 mm 0,0 km/h (0 Bft) NE 45 0 min 0 W/m 4,9 C 6,4 C 0,0 km/h (0 Bft)
08/01/2012 23:50 6,3 C 90 % 1029,6 hPa 0,0 mm 0,0 km/h (0 Bft) NE 45 0 min 0 W/m 4,8 C 6,3 C 0,0 km/h (0 Bft)
_ Min-Heure 23:50 16:00 06:50 - 23:50 - - - - 23:50 09:10 23:50
Minimum _ 6,3 C 85 % 1026,4 hPa - 0,0 km/h (0 Bft) - - - - 4,8 C 6,0 C 0,0 km/h (0 Bft)
_ Max-Heure 05:10 05:50 23:50 23:50 15:10 - - 17:10 23:50 05:10 05:10 15:10
Maximum _ 8,6 C 95 % 1029,6 hPa 0,0 mm 9,0 km/h
N-NO (2 Bft)
- - 2 min 0 W/m 7,8 C 8,6 C 13,3 km/h
N-NO (3 Bft)
Moyenne _ 7,5 C 91 % 1027,7 hPa #0,0 mm 1,3 km/h (1 Bft) N-NO - #1:42 h 0 W/m 6,1 C 7,5 C 2,9 km/h (1 Bft)
Saint Bonnet de Bellac- Haute Vienne - France